Location: Béaulencourt
(50.0796°N, 2.8795°E)
Time: 20:09:58
(UTC+00:00)

SMAP - Pass Details

Date: 20 January 2026
Orbit: 682 x 683 km, 98.1° (Epoch: 16 February)

Event Time Altitude Azimuth Distance (km) Brightness Sun altitude
Rises 06:26:28 0° 13° (NNE) 3,059 6.4 -11.1°
Reaches altitude 10° 06:28:43 10° 12° (NNE) 2,139 5.6 -10.8°
Maximum altitude 06:33:23 79° 288° (WNW) 701 3.0 -10.1°
Drops below altitude 10° 06:38:02 10° 201° (SSW) 2,121 5.6 -9.4°
Sets 06:40:16 0° 200° (SSW) 3,032 6.4 -9.0°
